Location: CCZU
(31.6840°N, 119.9550°E)
Time: 06:27:42
(UTC+08:00)

Envisat - Visible Passes

Search period start: 23 April 2019 00:00
Search period end: 03 May 2019 00:00
Orbit: 764 x 766 km, 98.2° (Epoch: 22 April)

Date Brightness Start Highest point End Pass type
(mag) Time Alt. Az. Time Alt. Az. Time Alt. Az.
24 Apr 5.2 19:30:48 10° SSW 19:34:59 26° W 19:39:12 10° NW visible
25 Apr 3.6 18:53:07 10° S 18:58:08 64° W 19:03:11 10° NNW visible
26 Apr 5.8 19:58:13 10° WSW 20:00:41 14° W 20:03:10 10° WNW visible
27 Apr 4.8 19:19:10 10° SSW 19:23:43 33° W 19:28:17 10° NNW visible
29 Apr 5.7 19:45:59 10° SW 19:49:23 18° W 19:52:47 10° NW visible
30 Apr 4.3 19:07:39 10° S 19:12:27 44° W 19:17:17 10° NNW visible
02 May 5.4 19:34:05 10° SSW 19:38:05 23° W 19:42:06 10° NW visible
